QPF
0.00 0.00 0.00 0.00 0.00 0.00 0.00 0.00 0.00 0.00 0.00 0.00 0.00 0.00 0.00 0.00 0.01 0.03 0.03 0.03 0.03 0.02 0.01 0.03 0.01 0.01 0.00 0.00 0.00 0.00 0.00 0.00 0.00 0.00 0.00 0.00 0.00 0.00 0.00 0.00 0.00 0.00 0.00
0.00 0.00 0.00 0.00 0.00 0.00 0.00 0.00 0.00 0.00 0.00 0.00 0.00 0.00 0.00 0.00 0.00 0.02 0.08 0.06 0.02 0.03 0.02 0.02 0.01 0.00 0.00 0.00 0.00 0.00 0.00 0.00 0.00 0.00 0.00 0.00 0.00 0.00 0.00 0.00 0.00 0.00 0.00
0.00 0.00 0.00 0.00 0.00 0.00 0.00 0.00 0.00 0.00 0.00 0.00 0.00 0.00 0.00 0.00 0.01 0.06 0.09 0.04 0.02 0.02 0.01 0.01 0.01 0.00 0.00 0.00 0.00 0.00 0.00 0.00 0.00 0.00 0.00 0.00 0.00 0.00 0.00 0.00 0.00 0.00 0.00
0.00 0.00 0.00 0.00 0.00 0.00 0.00 0.00 0.00 0.00 0.00 0.00 0.00 0.00 0.00 0.00 0.00 0.02 0.00 0.00 0.00 0.00 0.00 0.00 0.00 0.00 0.00 0.00 0.00 0.00 0.00 0.00 0.00 0.00 0.00 0.00 0.00 0.00 0.00 0.00 0.00 0.00 0.00
0.00 0.00 0.00 0.00 0.00 0.00 0.00 0.00 0.00 0.00 0.00 0.00 0.00 0.00 0.00 0.00 0.01 0.00 0.00 0.00 0.00 0.00 0.00 0.00 0.00 0.00 0.00 0.00 0.00 0.00 0.00 0.00 0.00 0.00 0.00 0.00 0.00 0.00 0.00 0.00 0.00 0.00 0.00
0.00 0.00 0.00 0.00 0.00 0.00 0.00 0.00 0.00 0.00 0.00 0.00 0.00 0.00 0.00 0.00 0.00 0.00 0.00 0.00 0.00 0.00 0.00 0.00 0.00 0.00 0.00 0.00 0.00 0.00 0.00 0.00 0.00 0.00 0.00 0.00 0.00 0.00 0.00 0.00 0.00 0.00 0.00
0.00 0.00 0.00 0.00 0.00 0.00 0.00 0.00 0.00 0.00 0.00 0.00 0.00 0.00 0.00 0.00 0.00 0.00 0.00 0.00 0.00 0.00 0.00 0.00 0.00 0.00 0.00 0.00 0.00 0.00 0.00 0.00 0.00 0.00 0.00 0.00 0.00 0.00 0.00 0.00 0.00 0.00 0.00
0.00 0.00 0.00 0.00 0.00 0.00 0.00 0.00 0.00 0.00 0.00 0.00 0.00 0.00 0.00 0.00 0.00 0.00 0.00 0.00 0.00 0.00 0.00 0.00 0.00 0.00 0.00 0.00 0.00 0.00 0.00 0.00 0.00 0.00 0.00 0.00 0.00 0.00 0.00 0.00 0.00 0.00 0.00
0.00 0.00 0.00 0.00 0.00 0.00 0.00 0.00 0.00 0.00 0.00 0.00 0.00 0.00 0.00 0.00 0.00 0.00 0.00 0.00 0.00 0.00 0.00 0.00 0.00 0.00 0.00 0.00 0.00 0.00 0.00 0.00 0.00 0.00 0.00 0.00 0.00 0.00 0.00 0.00 0.00 0.00 0.00
0.00 0.00 0.00 0.00 0.00 0.00 0.00 0.00 0.00 0.00 0.00 0.00 0.00 0.00 0.00 0.00 0.00 0.00 0.00 0.00 0.00 0.00 0.00 0.00 0.00 0.00 0.00 0.00 0.00 0.00 0.00 0.00 0.00 0.00 0.00 0.00 0.00 0.00 0.00 0.00 0.00 0.00 0.00
0.00 0.00 0.00 0.00 0.00 0.00 0.00 0.00 0.00 0.00 0.00 0.00 0.00 0.00 0.00 0.00 0.00 0.00 0.00 0.00 0.00 0.00 0.00 0.00 0.00 0.00 0.00 0.00 0.00 0.00 0.00 0.00 0.00 0.00 0.00 0.00 0.00 0.00 0.00 0.00 0.00 0.00 0.00
0.00 0.00 0.00 0.00 0.00 0.00 0.00 0.00 0.00 0.00 0.00 0.00 0.00 0.00 0.00 0.00 0.00 0.00 0.00 0.00 0.00 0.00 0.00 0.00 0.00 0.00 0.00 0.00 0.00 0.00 0.00 0.00 0.00 0.00 0.00 0.00 0.00 0.00 0.00 0.00 0.00 0.00 0.00
0.00 0.00 0.00 0.00 0.00 0.00 0.00 0.00 0.00 0.00 0.00 0.00 0.00 0.00 0.00 0.00 0.00 0.00 0.00 0.00 0.00 0.00 0.00 0.00 0.00 0.00 0.00 0.00 0.00 0.00 0.00 0.00 0.00 0.00 0.00 0.00 0.00 0.00 0.00 0.00 0.00 0.00 0.00
0.00 0.00 0.00 0.00 0.00 0.00 0.00 0.00 0.00 0.00 0.00 0.00 0.00 0.00 0.00 0.00 0.00 0.00 0.00 0.00 0.00 0.00 0.00 0.00 0.00 0.00 0.00 0.00 0.00 0.00 0.00 0.00 0.00 0.00 0.00 0.00 0.00 0.00 0.00 0.00 0.00 0.00 0.00
0.00 0.00 0.00 0.00 0.00 0.00 0.00 0.00 0.00 0.00 0.00 0.00 0.00 0.00 0.00 0.00 0.00 0.00 0.00 0.00 0.00 0.00 0.00 0.00 0.00 0.00 0.00 0.00 0.00 0.00 0.00 0.00 0.00 0.00 0.00 0.00 0.00 0.00 0.00 0.00 0.00 0.00 0.00
0.00 0.00 0.00 0.00 0.00 0.00 0.00 0.00 0.00 0.00 0.00 0.00 0.00 0.00 0.00 0.00 0.00 0.00 0.00 0.00 0.00 0.00 0.00 0.00 0.00 0.00 0.00 0.00 0.00 0.00 0.00 0.00 0.00 0.00 0.00 0.00 0.00 0.00 0.00 0.00 0.00 0.00 0.00
0.00 0.00 0.00 0.00 0.00 0.00 0.00 0.00 0.00 0.00 0.00 0.00 0.00 0.00 0.00 0.00 0.00 0.00 0.00 0.00 0.00 0.00 0.00 0.00 0.00 0.00 0.00 0.00 0.00 0.00 0.00 0.00 0.00 0.00 0.00 0.00 0.00 0.00 0.00 0.00 0.00 0.00 0.00
0.00 0.00 0.00 0.00 0.00 0.00 0.00 0.00 0.00 0.00 0.00 0.00 0.00 0.00 0.00 0.00 0.00 0.00 0.00 0.00 0.00 0.00 0.00 0.00 0.00 0.00 0.00 0.00 0.00 0.00 0.00 0.00 0.00 0.00 0.00 0.00 0.00 0.00 0.00 0.00 0.00 0.00 0.00
0.00 0.00 0.00 0.00 0.00 0.00 0.00 0.00 0.00 0.00 0.00 0.00 0.00 0.00 0.00 0.00 0.00 0.00 0.00 0.00 0.00 0.00 0.00 0.00 0.00 0.00 0.00 0.00 0.00 0.00 0.00 0.00 0.00 0.00 0.00 0.00 0.00 0.00 0.00 0.00 0.00 0.00 0.00
0.00 0.00 0.00 0.00 0.00 0.00 0.00 0.00 0.00 0.00 0.00 0.00 0.00 0.00 0.00 0.00 0.00 0.00 0.00 0.00 0.00 0.00 0.00 0.00 0.00 0.00 0.00 0.00 0.00 0.00 0.00 0.00 0.00 0.00 0.00 0.00 0.00 0.00 0.00 0.00 0.00 0.00 0.00
0.00 0.00 0.00 0.00 0.00 0.00 0.00 0.00 0.00 0.00 0.00 0.00 0.00 0.00 0.00 0.00 0.00 0.00 0.00 0.00 0.00 0.00 0.00 0.00 0.00 0.00 0.00 0.00 0.00 0.00 0.00 0.00 0.00 0.00 0.00 0.00 0.00 0.00 0.00 0.00 0.00 0.00 0.00
0.00 0.00 0.00 0.00 0.00 0.00 0.00 0.00 0.00 0.00 0.00 0.00 0.00 0.00 0.00 0.00 0.00 0.00 0.00 0.00 0.00 0.00 0.00 0.00 0.00 0.00 0.00 0.00 0.00 0.00 0.00 0.00 0.00 0.00 0.00 0.00 0.00 0.00 0.00 0.00 0.00 0.00 0.00
0.00 0.00 0.00 0.00 0.00 0.00 0.00 0.00 0.00 0.00 0.00 0.00 0.00 0.00 0.00 0.00 0.00 0.00 0.00 0.00 0.00 0.00 0.00 0.00 0.00 0.00 0.00 0.00 0.00 0.00 0.00 0.00 0.00 0.00 0.00 0.00 0.00 0.00 0.00 0.00 0.00 0.00 0.00
0.00 0.00 0.00 0.00 0.00 0.00 0.00 0.00 0.00 0.00 0.00 0.00 0.00 0.00 0.00 0.00 0.00 0.00 0.00 0.00 0.00 0.00 0.00 0.00 0.00 0.00 0.00 0.00 0.00 0.00 0.00 0.00 0.00 0.00 0.00 0.00 0.00 0.00 0.00 0.00 0.00 0.00 0.00
0.00 0.00 0.00 0.00 0.00 0.00 0.00 0.00 0.00 0.00 0.00 0.00 0.00 0.00 0.00 0.00 0.00 0.00 0.00 0.00 0.00 0.00 0.00 0.00 0.00 0.00 0.00 0.00 0.00 0.00 0.00 0.00 0.00 0.00 0.00 0.00 0.00 0.00 0.00 0.00 0.00 0.00 0.00
0.00 0.00 0.00 0.00 0.00 0.00 0.00 0.00 0.00 0.00 0.00 0.00 0.00 0.00 0.00 0.00 0.00 0.00 0.00 0.00 0.00 0.00 0.00 0.00 0.00 0.00 0.00 0.00 0.00 0.00 0.00 0.00 0.00 0.00 0.00 0.00 0.00 0.00 0.00 0.00 0.00 0.00 0.00
MSLP
1011.65 1012.13 1012.33 1012.53 1012.94 1013.13 1013.49 1013.71 1013.88 1014.04 1014.18 1014.39 1014.51 1014.55 1014.65 1014.86 1015.09 1015.34 1015.63 1015.90 1016.30 1016.63 1016.97 1017.43 1017.91 1018.18 1018.47 1018.72 1018.86 1019.45 1020.05 1020.50 1021.25 1022.04 1022.25 1022.44 1022.78 1022.85 1022.97 1023.06 1023.03 1023.09 1023.00
1011.77 1012.26 1012.48 1012.79 1013.25 1013.68 1013.95 1014.22 1014.24 1014.42 1014.53 1014.66 1014.66 1014.68 1014.76 1014.80 1014.95 1015.21 1015.52 1015.70 1016.03 1016.53 1016.94 1017.33 1017.62 1017.90 1018.21 1018.49 1018.87 1019.69 1020.17 1020.69 1021.12 1022.04 1022.68 1023.10 1023.45 1023.76 1023.80 1023.77 1023.96 1023.95 1023.90
1011.81 1012.41 1012.73 1013.18 1013.73 1014.16 1014.41 1014.59 1014.64 1014.65 1014.71 1014.70 1014.71 1014.75 1014.80 1014.88 1014.98 1015.22 1015.61 1015.89 1016.38 1016.75 1016.95 1017.10 1017.60 1017.96 1018.26 1018.53 1019.23 1019.90 1020.46 1021.00 1021.43 1022.06 1023.06 1023.52 1023.93 1024.12 1024.30 1024.40 1024.45 1024.48 1024.37
1012.17 1012.73 1013.08 1013.56 1014.01 1014.46 1014.82 1014.95 1014.90 1014.91 1014.80 1014.72 1014.70 1014.77 1014.83 1014.90 1015.14 1015.45 1015.96 1016.49 1016.91 1017.27 1017.56 1017.65 1017.93 1018.23 1018.57 1018.99 1019.63 1020.28 1020.79 1021.45 1021.81 1022.41 1023.23 1023.84 1024.16 1024.41 1024.45 1024.61 1024.73 1024.67 1024.56
1012.39 1012.90 1013.28 1013.68 1014.20 1014.69 1014.95 1015.05 1015.19 1014.94 1014.84 1014.86 1014.89 1014.98 1014.98 1015.28 1015.61 1015.89 1016.46 1017.01 1017.42 1017.83 1018.24 1018.36 1018.38 1018.64 1018.98 1019.36 1019.96 1020.61 1020.93 1021.44 1022.20 1022.95 1023.53 1024.05 1024.59 1024.80 1024.78 1024.83 1024.98 1024.99 1025.03
1012.41 1012.95 1013.46 1013.92 1014.51 1014.85 1015.10 1015.32 1015.32 1015.14 1015.32 1015.32 1015.41 1015.38 1015.51 1015.89 1016.20 1016.58 1017.06 1017.58 1018.13 1018.50 1018.77 1019.10 1019.10 1019.24 1019.73 1020.16 1020.52 1020.87 1021.14 1021.83 1022.57 1023.29 1023.86 1024.63 1025.11 1025.14 1025.13 1025.28 1025.31 1025.38 1025.48
1012.48 1013.25 1013.72 1014.14 1014.77 1015.05 1015.37 1015.59 1015.55 1015.63 1015.89 1015.97 1015.97 1016.02 1016.22 1016.62 1016.87 1017.38 1017.95 1018.38 1018.87 1019.29 1019.69 1019.95 1020.21 1020.64 1020.85 1021.16 1021.40 1021.74 1022.03 1022.30 1022.92 1023.57 1024.47 1025.14 1025.45 1025.54 1025.47 1025.58 1025.61 1025.64 1025.84
1012.67 1013.38 1013.83 1014.47 1014.97 1015.37 1015.70 1016.03 1015.92 1016.23 1016.49 1016.59 1016.63 1016.82 1017.06 1017.47 1017.74 1018.18 1018.65 1019.25 1019.67 1020.22 1020.52 1020.80 1021.11 1021.61 1021.98 1022.25 1022.64 1023.07 1023.49 1023.88 1024.21 1024.34 1024.87 1025.44 1025.66 1025.69 1025.63 1025.73 1025.79 1026.02 1026.20
1012.77 1013.36 1014.00 1014.63 1015.19 1015.62 1016.04 1016.44 1016.43 1016.81 1017.20 1017.28 1017.45 1017.66 1017.92 1018.34 1018.60 1018.93 1019.23 1019.88 1020.61 1021.18 1021.43 1021.64 1021.92 1022.16 1022.42 1022.85 1023.20 1023.77 1024.20 1024.47 1024.46 1024.62 1024.80 1024.95 1025.09 1025.37 1025.62 1025.79 1026.34 1026.40 1026.76
1012.83 1013.48 1014.17 1014.78 1015.43 1015.85 1016.37 1016.74 1017.02 1017.26 1017.65 1017.87 1018.12 1018.48 1018.76 1019.06 1019.39 1019.69 1020.05 1020.73 1021.47 1022.01 1022.18 1022.16 1022.06 1022.42 1022.79 1023.38 1023.86 1024.39 1024.86 1025.27 1025.29 1025.52 1025.92 1026.10 1026.19 1026.06 1026.09 1026.37 1026.59 1026.78 1026.87
1012.94 1013.71 1014.46 1015.09 1015.72 1016.16 1016.64 1017.06 1017.29 1017.66 1018.05 1018.46 1018.85 1019.30 1019.51 1019.75 1020.18 1020.42 1020.85 1021.35 1021.98 1022.54 1022.92 1023.06 1023.04 1022.94 1023.24 1023.89 1024.43 1024.66 1025.00 1025.52 1025.95 1026.35 1026.68 1026.93 1026.99 1026.99 1026.94 1026.76 1026.53 1026.58 1026.62
1013.07 1013.98 1014.74 1015.35 1015.98 1016.47 1016.81 1017.50 1017.77 1018.07 1018.50 1019.11 1019.63 1020.09 1020.35 1020.41 1020.66 1021.00 1021.42 1021.95 1022.60 1022.91 1023.46 1023.62 1023.84 1023.88 1024.05 1024.31 1024.71 1024.79 1025.15 1025.81 1026.52 1026.98 1027.29 1027.60 1027.61 1027.54 1027.39 1027.11 1026.75 1026.75 1026.58
1013.33 1014.26 1015.00 1015.56 1016.27 1016.71 1017.07 1017.69 1018.15 1018.72 1019.04 1019.66 1020.23 1020.81 1021.27 1021.32 1021.39 1021.45 1022.04 1022.64 1023.16 1023.54 1023.80 1024.02 1024.33 1024.57 1024.88 1025.21 1025.46 1025.68 1026.08 1026.71 1027.24 1027.72 1028.17 1028.33 1028.26 1028.00 1027.55 1027.13 1027.29 1027.21 1026.92
1013.48 1014.40 1015.22 1015.76 1016.51 1016.98 1017.32 1017.80 1018.40 1019.04 1019.61 1020.10 1020.73 1021.42 1021.90 1022.23 1022.32 1022.47 1022.94 1023.43 1023.66 1024.04 1024.46 1025.14 1025.30 1025.52 1025.79 1026.26 1026.71 1026.95 1027.26 1027.56 1027.89 1028.41 1028.67 1028.63 1028.40 1028.19 1028.08 1027.89 1027.90 1027.85 1027.64
1013.54 1014.49 1015.38 1016.04 1016.60 1017.27 1017.68 1018.02 1018.70 1019.31 1019.54 1020.15 1021.02 1021.49 1021.89 1022.55 1022.95 1023.15 1023.41 1023.90 1024.31 1024.62 1025.25 1025.77 1026.18 1026.75 1027.02 1027.26 1027.59 1027.91 1028.17 1028.32 1028.56 1028.83 1028.93 1028.97 1028.95 1028.70 1028.63 1028.50 1028.41 1028.36 1028.48
1013.58 1014.57 1015.26 1016.04 1016.77 1017.55 1018.07 1018.70 1019.02 1019.38 1020.03 1020.55 1021.12 1021.41 1022.05 1022.43 1022.87 1023.29 1023.73 1024.09 1024.42 1024.83 1025.57 1026.44 1027.02 1027.41 1027.82 1028.13 1028.50 1028.78 1028.85 1028.98 1029.15 1029.24 1029.39 1029.45 1029.47 1029.30 1029.09 1028.94 1028.76 1028.72 1028.69
1013.38 1014.44 1015.22 1016.04 1016.75 1017.78 1018.44 1018.95 1019.80 1020.29 1020.42 1020.92 1021.42 1021.73 1022.13 1022.47 1022.98 1023.48 1023.88 1024.28 1024.57 1025.10 1026.08 1026.90 1027.39 1027.82 1028.24 1028.50 1028.84 1028.99 1029.29 1029.33 1029.48 1029.64 1029.76 1029.74 1029.63 1029.51 1029.33 1029.30 1029.23 1029.01 1028.86
1013.45 1014.16 1015.03 1016.05 1016.96 1017.86 1018.78 1019.34 1019.88 1020.58 1021.17 1021.55 1021.79 1022.01 1022.45 1022.91 1023.38 1023.81 1024.24 1024.68 1025.24 1025.83 1026.50 1027.18 1027.65 1028.06 1028.36 1028.62 1028.90 1029.12 1029.42 1029.69 1029.77 1029.82 1029.92 1029.92 1029.80 1029.67 1029.62 1029.67 1029.60 1029.35 1029.10
1013.47 1014.26 1015.06 1016.14 1017.15 1017.80 1018.94 1019.64 1020.15 1020.84 1021.58 1022.01 1022.37 1022.75 1023.00 1023.36 1023.77 1024.21 1024.68 1025.15 1025.70 1026.37 1026.90 1027.42 1027.74 1028.01 1028.23 1028.53 1028.91 1029.23 1029.56 1029.83 1030.01 1030.10 1030.13 1030.13 1030.10 1030.04 1030.03 1029.94 1029.68 1029.32 1029.14
1013.40 1013.98 1014.82 1016.00 1017.20 1018.04 1018.89 1019.77 1020.41 1021.04 1021.78 1022.33 1022.66 1023.07 1023.43 1023.83 1024.32 1024.76 1025.16 1025.55 1025.99 1026.54 1027.08 1027.50 1027.78 1027.94 1028.22 1028.65 1029.08 1029.46 1029.81 1030.06 1030.21 1030.24 1030.30 1030.34 1030.32 1030.23 1030.18 1030.14 1029.95 1029.77 1029.53
1013.49 1014.13 1014.77 1015.82 1016.86 1017.76 1018.54 1019.52 1020.30 1020.92 1021.67 1022.42 1022.82 1023.15 1023.50 1023.92 1024.55 1025.02 1025.40 1025.73 1026.05 1026.63 1027.07 1027.40 1027.68 1027.99 1028.30 1028.74 1029.19 1029.56 1029.94 1030.22 1030.32 1030.36 1030.43 1030.48 1030.41 1030.35 1030.30 1030.23 1030.08 1029.80 1029.41
1013.22 1013.93 1014.70 1015.52 1016.49 1017.50 1018.32 1019.15 1020.01 1020.68 1021.39 1022.20 1022.82 1023.26 1023.72 1024.21 1024.64 1025.11 1025.48 1025.75 1026.02 1026.47 1026.80 1027.22 1027.67 1028.00 1028.36 1028.69 1029.09 1029.66 1030.01 1030.15 1030.33 1030.47 1030.54 1030.53 1030.47 1030.43 1030.38 1030.30 1030.08 1029.78 1029.52
1012.86 1013.68 1014.46 1015.26 1016.10 1017.05 1018.03 1018.82 1019.61 1020.32 1021.00 1021.79 1022.41 1022.98 1023.54 1024.08 1024.53 1025.00 1025.39 1025.73 1025.95 1026.40 1026.76 1027.16 1027.71 1028.17 1028.33 1028.58 1028.94 1029.34 1029.73 1030.04 1030.23 1030.39 1030.55 1030.53 1030.50 1030.46 1030.42 1030.35 1030.15 1029.90 1029.70
1012.56 1013.23 1014.02 1014.84 1015.76 1016.66 1017.55 1018.32 1019.18 1019.86 1020.46 1021.22 1021.83 1022.46 1023.09 1023.62 1024.14 1024.68 1025.20 1025.56 1025.89 1026.33 1026.75 1027.21 1027.74 1028.02 1028.35 1028.73 1029.01 1029.20 1029.53 1029.84 1030.07 1030.28 1030.37 1030.46 1030.52 1030.48 1030.43 1030.31 1030.17 1029.96 1029.67
1012.18 1012.85 1013.59 1014.33 1015.14 1016.04 1017.04 1017.85 1018.62 1019.33 1019.92 1020.50 1021.23 1021.94 1022.62 1023.24 1023.79 1024.34 1024.90 1025.34 1025.78 1026.31 1026.82 1027.28 1027.67 1027.93 1028.36 1028.72 1029.01 1029.33 1029.57 1029.86 1030.15 1030.23 1030.38 1030.46 1030.49 1030.42 1030.40 1030.31 1030.16 1029.95 1029.75
1011.72 1012.33 1012.96 1013.85 1014.63 1015.41 1016.32 1017.14 1017.95 1018.69 1019.22 1019.85 1020.59 1021.38 1022.04 1022.76 1023.31 1023.89 1024.47 1025.06 1025.69 1026.29 1026.78 1027.22 1027.60 1027.99 1028.34 1028.74 1029.16 1029.46 1029.68 1029.94 1030.19 1030.26 1030.43 1030.52 1030.53 1030.48 1030.39 1030.24 1030.13 1030.03 1029.90
Thickness
5626 5625 5627 5626 5623 5623 5619 5617 5613 5610 5606 5602 5599 5597 5594 5591 5589 5588 5587 5587 5588 5586 5586 5582 5579 5576 5575 5572 5571 5566 5561 5558 5551 5544 5541 5539 5536 5534 5533 5531 5530 5528 5526
5618 5618 5620 5619 5616 5613 5610 5607 5606 5602 5599 5597 5595 5592 5589 5585 5583 5584 5585 5586 5586 5584 5583 5579 5578 5576 5574 5571 5568 5561 5558 5553 5550 5542 5535 5531 5528 5524 5522 5521 5518 5516 5515
5613 5612 5612 5610 5608 5605 5604 5601 5599 5597 5595 5594 5593 5589 5585 5581 5577 5579 5580 5581 5581 5580 5580 5579 5575 5573 5571 5568 5561 5557 5552 5548 5544 5539 5529 5524 5519 5516 5513 5510 5508 5505 5503
5604 5604 5604 5603 5601 5599 5596 5595 5594 5593 5592 5593 5592 5588 5585 5582 5578 5576 5575 5575 5575 5574 5573 5572 5570 5569 5566 5561 5555 5549 5546 5540 5536 5530 5523 5517 5513 5509 5506 5503 5498 5494 5492
5599 5598 5598 5597 5595 5593 5592 5591 5588 5590 5590 5590 5589 5587 5586 5581 5577 5576 5573 5572 5571 5569 5565 5564 5563 5563 5560 5556 5551 5545 5541 5535 5528 5523 5518 5512 5505 5500 5497 5492 5487 5482 5477
5594 5593 5592 5591 5589 5589 5588 5586 5585 5586 5585 5586 5585 5584 5583 5578 5575 5572 5569 5567 5564 5561 5558 5554 5557 5556 5553 5548 5543 5538 5534 5528 5522 5516 5510 5502 5491 5488 5483 5478 5473 5469 5464
5589 5587 5586 5586 5584 5584 5583 5581 5581 5581 5580 5580 5580 5579 5577 5573 5571 5566 5561 5559 5556 5553 5549 5547 5546 5543 5541 5537 5533 5528 5524 5520 5514 5506 5496 5487 5480 5476 5472 5467 5462 5458 5451
5582 5582 5582 5580 5579 5579 5578 5575 5576 5575 5574 5574 5575 5573 5571 5568 5565 5561 5558 5553 5551 5546 5544 5542 5539 5533 5529 5526 5521 5516 5510 5505 5501 5496 5490 5481 5475 5471 5466 5460 5455 5448 5440
5578 5579 5577 5575 5574 5574 5573 5570 5571 5569 5567 5568 5568 5567 5565 5561 5560 5557 5554 5549 5544 5539 5536 5533 5530 5526 5523 5520 5516 5509 5502 5496 5492 5487 5482 5476 5470 5463 5457 5452 5441 5434 5425
5574 5573 5571 5571 5569 5569 5568 5567 5566 5565 5564 5564 5563 5561 5559 5556 5554 5551 5548 5543 5536 5531 5529 5528 5527 5524 5519 5514 5507 5499 5491 5486 5481 5476 5470 5463 5457 5451 5445 5439 5431 5420 5413
5569 5567 5565 5565 5563 5563 5563 5562 5563 5562 5561 5559 5557 5554 5553 5551 5547 5545 5541 5537 5532 5528 5524 5521 5520 5519 5513 5506 5500 5493 5486 5479 5472 5464 5457 5451 5445 5439 5433 5428 5422 5414 5406
5564 5561 5560 5559 5558 5558 5559 5557 5557 5557 5555 5552 5549 5546 5545 5545 5543 5540 5536 5532 5527 5525 5520 5517 5514 5511 5506 5500 5494 5487 5480 5472 5464 5455 5448 5440 5435 5429 5424 5419 5412 5405 5398
5558 5555 5554 5555 5553 5553 5554 5553 5552 5550 5549 5547 5543 5539 5537 5536 5536 5535 5530 5526 5523 5520 5517 5513 5509 5503 5497 5490 5483 5477 5470 5462 5454 5445 5436 5430 5425 5421 5416 5410 5402 5395 5387
5554 5552 5550 5550 5549 5549 5550 5550 5549 5546 5543 5542 5538 5532 5529 5528 5527 5527 5524 5521 5519 5516 5511 5505 5500 5494 5487 5480 5473 5467 5460 5452 5444 5436 5429 5423 5419 5412 5404 5397 5390 5382 5373
5551 5548 5546 5546 5546 5545 5544 5546 5545 5541 5542 5539 5534 5532 5529 5524 5522 5523 5521 5518 5514 5511 5506 5499 5491 5483 5476 5470 5464 5458 5452 5444 5437 5430 5424 5417 5410 5403 5395 5386 5377 5368 5357
5548 5546 5546 5545 5542 5539 5539 5537 5540 5540 5538 5535 5532 5531 5527 5526 5523 5521 5519 5517 5513 5508 5502 5493 5484 5478 5470 5464 5457 5450 5444 5438 5431 5424 5416 5408 5399 5392 5384 5375 5367 5357 5344
5548 5545 5545 5541 5538 5534 5535 5535 5530 5531 5534 5532 5529 5526 5525 5524 5521 5519 5518 5515 5511 5507 5497 5488 5481 5475 5467 5461 5454 5448 5440 5434 5427 5418 5410 5403 5395 5386 5377 5366 5355 5345 5333
5544 5544 5542 5537 5533 5531 5528 5528 5528 5527 5525 5524 5525 5523 5522 5520 5519 5517 5515 5512 5507 5501 5493 5486 5479 5473 5467 5461 5454 5447 5438 5430 5423 5415 5406 5396 5388 5379 5368 5356 5343 5331 5318
5541 5540 5539 5535 5530 5530 5526 5524 5524 5522 5520 5519 5519 5517 5517 5516 5516 5514 5512 5508 5504 5497 5491 5484 5478 5474 5468 5461 5453 5445 5437 5428 5418 5409 5400 5391 5381 5370 5358 5345 5333 5321 5306
5537 5539 5537 5533 5529 5527 5525 5522 5521 5520 5518 5516 5516 5515 5513 5513 5512 5510 5508 5506 5502 5496 5489 5483 5479 5475 5468 5461 5452 5443 5434 5424 5414 5405 5396 5386 5375 5364 5351 5337 5324 5309 5293
5533 5535 5535 5533 5530 5527 5526 5522 5521 5520 5517 5514 5514 5514 5514 5513 5511 5509 5507 5505 5501 5495 5489 5484 5480 5475 5467 5460 5451 5441 5430 5420 5411 5403 5393 5382 5371 5359 5346 5332 5318 5304 5289
5532 5534 5534 5533 5531 5527 5526 5524 5521 5520 5518 5515 5513 5513 5512 5510 5510 5508 5507 5505 5501 5496 5491 5486 5480 5474 5467 5459 5450 5439 5428 5419 5410 5400 5390 5380 5369 5357 5343 5330 5316 5303 5287
5532 5532 5532 5532 5531 5529 5526 5524 5523 5521 5519 5517 5515 5514 5513 5511 5511 5509 5507 5505 5501 5496 5491 5486 5480 5473 5466 5458 5449 5440 5430 5420 5410 5399 5389 5379 5368 5356 5343 5329 5316 5302 5288
5530 5532 5532 5532 5530 5529 5527 5526 5524 5523 5522 5520 5519 5518 5516 5515 5514 5512 5508 5505 5501 5496 5491 5486 5479 5473 5466 5457 5447 5439 5429 5419 5409 5399 5389 5379 5368 5356 5344 5331 5318 5305 5292
5528 5532 5532 5533 5533 5532 5528 5527 5527 5525 5525 5525 5523 5521 5519 5518 5516 5513 5510 5506 5502 5496 5491 5485 5479 5473 5465 5456 5447 5438 5428 5418 5408 5399 5389 5379 5369 5358 5347 5334 5321 5310 5298
5528 5532 5534 5533 5534 5533 5532 5530 5530 5529 5529 5529 5527 5524 5523 5521 5519 5516 5512 5507 5502 5496 5491 5486 5479 5472 5464 5455 5445 5436 5427 5418 5409 5400 5390 5380 5371 5361 5350 5339 5327 5314 5302